Location: McFarlands Corners
(41.4117°N, 81.3382°W)
Time: 05:44:07
(UTC+00:00)

Tiros 1 - Pass Details

Date: 24 February 2026
Orbit: 618 x 649 km, 48.4° (Epoch: 5 March)

Event Time Altitude Azimuth Distance (km) Brightness Sun altitude
Rises 11:55:41 0° 243° (WSW) 2,926 10.0 -3.0°
Reaches altitude 10° 11:58:01 10° 244° (WSW) 2,015 9.2 -2.6°
Maximum altitude 12:02:39 81° 331° (NNW) 642 7.2 -1.7°
Drops below altitude 10° 12:07:16 10° 60° (ENE) 2,001 10.5 -0.9°
Sets 12:09:35 0° 62° (ENE) 2,905 11.4 -0.4°
